Weather History for MZBZ - December, 2011

Change the Weather History Date:

Wednesday, December 28, 2011

  Actual Average (WUND) Record (WUND)
Temperature  
Mean Temperature 75 °F -  
Max Temperature 79 °F - - (-1)
Min Temperature 71 °F 67 °F - (-1)
Cooling Degree Days 10    
Growing Degree Days 25 (Base 50)    
Moisture  
Dew Point 72 °F    
Average Humidity 88    
Maximum Humidity 100    
Minimum Humidity 72    
Precipitation  
Precipitation 0.00 in 0.19 in - ()
Sea Level Pressure  
Sea Level Pressure 30.06 in    
Wind  
Wind Speed 3 mph ()    
Max Wind Speed 8 mph    
Max Gust Speed -    
Visibility 7.9 miles    
Events Rain    
Averages and records for this station are not official NWS values.
T = Trace of Precipitation, MM = Missing Value Source: Averaged Metar Reports

Daily Weather History Graph

Daily Weather History Graph

Search for Another Location

Airport or City:

Trip Planner

Search our weather history database for the weather conditions in past years. The results will help you decide how hot, cold, wet, or windy it might be!

Date:

Astronomy

Dec. 28, 2011 Rise Set
Actual Time 6:22 AM CST 5:27 PM CST
Civil Twilight 5:58 AM CST 5:51 PM CST
Nautical Twilight 5:31 AM CST 6:18 PM CST
Astronomical Twilight 5:04 AM CST 6:44 PM CST
Moon 9:21 AM CST (12/28) 9:24 PM CST (12/28)
Length of Visible Light 11h 52m
Length of Day
11h 05m
Waxing Crescent, 18% of the Moon is Illuminated
Dec 28
Waxing Crescent
Jan 1
First Quarter
Jan 9
Full
Jan 16
Last Quarter
Jan 23
New

Hourly Weather History & Observations

Time (CST) Temp. Dew Point Humidity Pressure Visibility Wind Dir Wind Speed Gust Speed Precip Events Conditions
12:00 AM 73 °F 72 °F 97% 30.10 in 12 mi Calm Calm - -  
12:00 AM 73.4 °F 71.6 °F 94% 30.09 in 6.2 mi Calm Calm - N/A   Mostly Cloudy
3:00 AM 72 °F 71 °F 97% 30.06 in 12 mi Calm Calm - -   Mostly Cloudy
3:00 AM 71.6 °F 71.6 °F 100% 30.06 in 6.2 mi Calm Calm - N/A   Mostly Cloudy
6:00 AM 72 °F 71 °F 97% 30.09 in 12 mi NNW 5.8 mph - -  
6:00 AM 71.6 °F 71.6 °F 100% 30.06 in 6.2 mi NNW 5.8 mph - N/A   Mostly Cloudy
7:00 AM 73.4 °F 71.6 °F 94% 30.09 in 6.2 mi Calm Calm - N/A   Mostly Cloudy
8:00 AM 73.4 °F 71.6 °F 94% 30.09 in 6.2 mi North 5.8 mph - N/A   Mostly Cloudy
9:00 AM 75 °F 72 °F 89% 30.12 in 12 mi North 6.9 mph - -   Mostly Cloudy
9:00 AM 75.2 °F 71.6 °F 89% 30.11 in 6.2 mi North 5.8 mph - N/A   Mostly Cloudy
10:00 AM 78.8 °F 71.6 °F 78% 30.12 in 6.2 mi North 8.1 mph - N/A   Mostly Cloudy
11:00 AM 78.8 °F 71.6 °F 78% 30.10 in 6.2 mi North 8.1 mph - N/A   Mostly Cloudy
12:00 PM 76 °F 72 °F 84% 30.09 in 11 mi NE 5.8 mph - - Rain Light Rain Showers
12:00 PM 77.0 °F 71.6 °F 83% 30.08 in 6.2 mi NE 5.8 mph - N/A Rain Light Rain Showers
1:00 PM 78.8 °F 71.6 °F 78% 30.03 in 6.2 mi NW 6.9 mph - N/A   Mostly Cloudy
2:00 PM 78.8 °F 71.6 °F 78% 30.01 in 6.2 mi NNW 4.6 mph - N/A   Mostly Cloudy
3:00 PM 79 °F 72 °F 72% 30.01 in 12 mi NE 5.8 mph - -   Partly Cloudy
3:00 PM 78.8 °F 71.6 °F 78% 30.00 in 6.2 mi NE 5.8 mph - N/A   Mostly Cloudy
4:00 PM 78.8 °F 73.4 °F 83% 30.00 in 6.2 mi North 4.6 mph - N/A   Mostly Cloudy
5:00 PM 77.0 °F 71.6 °F 83% 30.01 in 6.2 mi NW 6.9 mph - N/A   Scattered Clouds
6:00 PM 76 °F 74 °F 90% 30.03 in 12 mi WNW 3.5 mph - -  
6:00 PM 77.0 °F 73.4 °F 89% 30.02 in 6.2 mi WNW 3.5 mph - N/A   Scattered Clouds
9:00 PM 73.4 °F 71.6 °F 94% 30.06 in 6.2 mi NW 2.3 mph - N/A   Partly Cloudy